Temp
67 67 69 69 68 69 68 68 68 69 70 70 70 69 68 65 63 63 65 64 64 65 65 65 65 65 65 65 65 66 65 65 64 62 61 62 61 61 62 62 63 63 62 61 62 60 59 57 58 62 62 62 62 63 63 63 63 63 63 64 65 65 64
67 68 68 69 68 67 67 67 68 68 69 68 67 67 66 65 64 64 64 64 64 65 66 65 65 65 65 64 64 64 64 64 64 63 62 62 62 61 61 61 62 61 61 62 62 61 58 57 58 59 59 62 62 62 62 63 63 64 64 64 65 66 64
67 67 67 66 66 66 65 65 65 66 66 65 65 66 65 65 65 65 65 64 64 65 65 65 65 65 65 65 65 64 64 64 64 64 63 62 63 63 63 62 60 61 61 61 60 60 59 61 58 58 59 59 58 61 62 62 62 63 64 64 65 65 65
66 66 65 64 63 63 64 64 65 66 66 65 63 64 64 66 65 65 64 65 65 66 64 63 64 63 64 64 65 65 65 63 63 64 63 63 63 63 63 62 61 62 61 60 60 60 59 59 58 58 59 61 61 59 61 62 62 64 64 64 64 64 64
67 66 65 65 63 63 63 63 64 65 66 65 62 63 64 64 64 64 65 65 66 65 64 64 64 65 64 64 63 64 64 63 64 64 63 63 63 63 63 63 63 63 62 62 62 63 61 61 61 58 58 60 61 60 62 60 63 64 63 64 64 65 65
68 68 67 66 65 64 64 63 63 63 64 63 61 62 62 63 63 63 64 65 65 65 64 64 64 65 64 64 64 63 63 63 63 64 63 63 63 62 62 63 63 63 62 62 63 63 63 62 61 58 60 62 58 58 60 61 60 64 63 64 65 66 67
67 66 65 66 66 65 64 63 63 63 63 63 62 61 62 63 63 64 65 64 64 64 64 64 65 65 65 64 64 63 63 63 64 64 63 64 63 63 63 62 62 62 62 63 63 63 62 62 60 60 59 60 60 59 60 61 63 60 62 63 66 67 68
65 65 65 68 68 67 65 64 64 63 63 63 61 63 63 63 63 63 63 63 64 64 64 64 64 64 65 65 65 64 64 64 64 64 63 63 63 63 63 63 63 63 63 64 64 64 65 64 64 61 60 57 57 58 58 60 61 62 61 63 67 68 68
64 64 65 65 66 66 65 64 63 63 63 64 62 63 63 63 63 63 63 63 64 64 65 64 64 64 64 65 64 64 63 65 64 64 64 63 64 64 64 63 63 63 64 65 66 66 66 64 65 63 62 61 58 54 57 57 58 60 65 63 67 69 67
66 65 65 65 65 65 64 64 64 63 63 63 62 62 62 63 63 63 62 63 63 64 65 64 64 64 64 63 63 63 63 64 64 63 63 63 63 63 63 64 63 64 64 66 66 66 64 63 64 63 63 61 61 58 55 55 56 57 64 67 64 67 68
65 66 66 66 65 65 64 63 63 63 62 63 63 63 62 62 63 64 62 63 63 63 63 63 63 63 63 63 64 64 64 63 63 63 63 63 62 62 63 63 64 64 65 66 65 64 64 63 63 63 62 62 61 59 59 56 55 59 62 67 68 64 65
65 66 65 65 64 64 63 63 62 62 62 62 63 62 62 62 63 62 63 63 63 63 64 64 63 62 63 63 64 63 63 63 62 62 62 63 63 63 63 63 63 63 65 65 64 64 64 64 63 63 62 62 61 61 60 59 56 58 65 62 65 67 66
67 67 66 64 64 63 63 63 63 62 62 63 62 63 63 63 63 62 62 62 62 63 63 63 63 63 63 64 63 62 63 63 62 62 62 63 63 63 64 63 63 63 64 64 64 64 64 64 64 63 63 62 61 62 61 59 58 59 62 61 64 66 67
66 66 65 64 63 63 63 63 63 63 63 62 63 62 62 62 62 62 62 62 62 62 61 61 63 64 63 63 63 62 63 63 62 62 63 63 64 63 63 64 63 64 64 64 63 64 63 65 64 63 64 62 61 62 62 60 58 57 58 62 65 65 67
63 63 62 62 62 62 62 62 62 63 62 62 63 62 62 62 62 62 62 62 62 62 62 63 62 62 61 62 62 63 62 62 63 63 63 62 63 64 63 63 63 63 64 64 64 65 65 66 65 63 64 64 62 62 64 61 59 57 58 61 64 67 66
62 63 62 61 61 62 62 63 63 62 62 62 63 62 62 62 63 63 62 62 62 62 62 63 62 62 61 62 62 62 62 62 62 62 62 63 64 64 63 62 62 63 64 64 64 65 65 65 65 63 61 62 62 61 62 63 61 59 60 61 64 65 65
63 63 62 61 61 62 63 63 63 62 62 62 62 63 63 63 63 62 62 62 62 62 62 62 62 63 63 63 62 62 62 62 62 62 63 64 64 63 63 62 62 62 63 63 63 62 62 61 60 61 62 61 61 61 61 61 62 63 61 61 63 66 66
63 63 63 63 63 64 64 64 63 62 62 62 62 62 62 63 62 62 62 62 63 62 62 62 62 61 62 62 63 62 62 62 62 62 63 63 65 63 62 62 62 62 62 62 61 60 61 61 61 61 60 61 61 61 62 60 61 62 62 61 62 65 64
63 64 64 64 64 64 64 64 63 62 62 62 63 63 63 62 62 62 62 62 62 62 61 62 61 61 62 61 62 62 62 62 62 62 62 63 62 63 62 62 63 63 62 61 60 61 61 61 61 60 60 60 61 60 59 59 60 59 59 61 63 61 62
63 63 63 63 63 62 61 62 62 62 62 63 63 62 62 62 62 62 61 62 62 61 61 61 61 61 62 62 62 62 61 61 61 61 62 63 62 62 63 63 62 63 62 62 61 61 60 60 60 60 60 61 61 59 58 59 59 60 59 58 59 61 61
63 63 63 62 61 60 61 61 61 62 61 61 61 61 61 62 63 63 62 61 61 62 62 61 61 61 62 62 61 61 61 61 61 62 62 62 62 62 63 62 61 62 63 62 61 61 61 60 60 60 60 60 60 59 59 58 58 58 58 58 59 59 58
63 63 62 61 60 60 60 61 61 61 61 61 62 61 62 61 61 60 60 59 60 60 60 61 61 61 61 62 61 61 61 61 61 61 61 61 62 62 62 62 62 61 63 63 59 60 60 60 61 59 59 59 60 59 59 58 58 58 59 59 59 60 58
62 62 62 60 60 60 60 60 59 59 59 60 60 60 60 60 59 57 56 57 56 54 53 52 50 51 56 60 61 61 60 60 61 61 60 61 61 61 62 62 63 63 61 59 56 55 53 54 58 60 60 60 59 59 58 59 59 59 60 59 61 59 57
61 60 60 60 59 59 59 58 58 58 58 58 58 58 58 57 57 56 55 54 53 53 51 49 44 41 43 48 61 60 60 59 60 60 61 60 59 59 59 59 58 60 59 58 56 51 50 51 51 52 54 56 59 61 60 58 59 60 60 60 60 59 59
60 59 59 59 59 59 58 57 56 56 56 55 55 56 55 55 55 55 54 53 51 50 50 46 40 42 43 43 50 60 60 60 60 60 60 60 60 59 58 58 58 59 58 57 54 52 47 45 46 46 48 48 51 52 53 58 59 59 59 58 59 59 60
59 58 58 58 58 58 57 55 55 54 54 54 53 52 51 52 52 53 54 52 50 49 48 44 41 43 43 43 48 57 60 60 59 59 59 60 59 59 58 58 59 59 59 58 56 53 52 51 48 47 47 47 47 44 44 49 53 60 60 60 59 57 57
57 57 58 57 57 57 56 55 54 54 54 53 51 50 50 49 50 50 51 51 51 49 47 44 40 44 46 46 49 54 59 57 55 54 54 55 58 60 59 59 58 57 58 57 56 57 58 57 56 56 55 54 53 52 48 47 47 49 55 58 57 54 54
56 56 56 56 56 56 55 54 54 54 53 52 50 49 48 48 48 48 48 50 50 49 48 42 42 47 48 49 49 51 56 55 53 52 51 51 51 54 58 59 58 57 58 58 58 59 59 57 55 54 54 52 51 51 50 52 56 57 55 55 53 53 53
55 55 55 55 54 54 54 54 53 53 53 52 52 51 49 48 47 46 47 48 48 48 47 41 43 47 48 48 49 54 53 52 51 50 49 48 48 48 50 52 53 54 54 55 53 49 53 56 55 55 53 53 52 50 49 47 46 49 52 53 52 51 49
54 54 54 53 53 53 53 53 54 54 52 51 50 49 48 47 47 46 46 46 46 46 46 43 42 46 47 48 50 53 52 50 49 48 48 48 47 47 48 49 49 49 48 48 44 44 48 52 55 55 54 53 53 52 50 49 45 44 44 43 43 43 44
53 53 53 52 52 52 53 53 54 54 52 51 50 50 49 48 47 46 45 45 45 44 44 43 42 45 46 47 50 52 51 49 48 47 46 47 46 46 46 48 49 46 45 45 42 43 46 53 54 54 54 54 53 51 51 53 52 48 45 45 45 45 45
52 52 52 52 52 52 52 52 53 54 53 52 51 51 50 48 47 47 46 45 46 44 43 43 42 42 43 45 49 51 49 48 47 46 46 45 45 45 45 45 45 44 44 43 41 41 43 52 57 56 55 54 52 52 52 53 54 54 54 54 54 55 53
51 51 51 52 53 52 52 52 52 52 52 52 51 51 50 49 48 47 47 45 44 44 43 43 42 41 42 43 45 49 49 47 45 44 45 45 44 44 44 44 43 41 41 41 41 41 42 44 50 52 54 54 53 52 53 54 55 56 55 54 53 53 53
49 50 51 52 52 52 52 51 51 51 51 51 50 49 49 49 48 48 47 47 45 45 45 43 42 41 41 42 42 45 46 45 45 44 43 43 43 43 43 43 43 41 41 41 41 41 42 42 44 47 47 48 49 50 52 54 53 51 54 53 53 52 52
49 49 49 50 50 51 52 52 51 51 50 49 48 47 47 47 47 47 47 48 47 46 46 44 43 42 41 41 41 42 44 44 44 44 43 42 42 42 42 42 42 41 41 40 41 42 41 42 42 46 43 42 43 44 51 53 53 54 53 52 52 51 51
48 49 48 48 48 47 49 50 50 50 49 49 48 47 46 46 45 45 45 46 47 47 46 45 43 43 41 41 41 41 42 43 43 45 43 42 42 42 43 43 43 42 41 41 41 41 42 42 43 42 41 42 43 44 46 49 50 51 50 50 49 49 49
49 48 48 48 47 47 47 48 48 47 46 46 45 45 45 45 45 44 43 44 45 46 47 47 44 42 42 41 41 41 41 41 42 44 44 42 42 43 42 42 42 41 41 41 41 41 41 42 42 41 42 42 43 44 47 47 47 48 48 47 47 47 48
MSLP
1016.50 1016.46 1016.06 1015.82 1015.62 1015.54 1015.58 1015.50 1015.34 1015.14 1014.98 1014.90 1015.06 1015.46 1016.14 1017.14 1017.70 1017.90 1017.78 1017.78 1017.30 1016.66 1016.50 1016.46 1016.50 1016.46 1016.46 1016.38 1016.34 1016.34 1016.46 1016.54 1016.62 1016.94 1017.30 1017.38 1017.74 1018.02 1017.98 1018.14 1018.34 1018.42 1018.78 1018.26 1018.18 1018.54 1019.18 1020.10 1020.22 1019.90 1019.78 1019.78 1019.86 1019.90 1019.94 1020.06 1020.14 1020.22 1020.30 1020.34 1020.50 1020.66 1020.86
1015.94 1015.86 1015.74 1015.66 1015.74 1015.74 1015.86 1015.58 1015.38 1015.22 1015.22 1015.42 1015.74 1016.10 1016.70 1017.46 1017.18 1016.70 1016.46 1016.30 1016.02 1015.90 1015.94 1016.06 1016.10 1016.18 1016.26 1016.30 1016.30 1016.34 1016.42 1016.42 1016.34 1016.42 1016.74 1017.02 1017.18 1017.46 1017.82 1018.06 1018.26 1018.66 1018.94 1018.34 1018.42 1018.18 1018.74 1019.66 1019.94 1020.02 1020.10 1019.94 1019.94 1019.86 1019.86 1019.94 1019.98 1020.06 1020.10 1020.22 1020.34 1020.50 1020.78
1015.94 1015.82 1015.78 1015.98 1016.06 1015.98 1015.94 1015.74 1015.58 1015.42 1015.34 1015.82 1016.54 1016.66 1016.54 1016.18 1016.02 1016.02 1015.90 1015.98 1016.14 1016.02 1016.02 1016.06 1016.02 1016.02 1016.10 1016.14 1016.10 1016.10 1016.14 1016.18 1016.10 1016.18 1016.34 1016.54 1016.66 1016.90 1017.14 1017.54 1018.10 1018.46 1018.70 1018.50 1018.90 1018.58 1018.42 1018.42 1019.22 1019.70 1019.78 1019.98 1020.22 1019.94 1019.78 1019.94 1019.98 1020.02 1020.02 1020.14 1020.30 1020.46 1020.66
1015.94 1015.98 1016.14 1016.22 1016.18 1016.14 1016.10 1015.94 1015.74 1015.46 1015.34 1015.98 1016.38 1016.10 1015.70 1016.22 1016.46 1016.14 1015.82 1015.82 1015.94 1015.98 1016.22 1016.30 1015.98 1016.26 1016.58 1016.58 1016.26 1016.02 1015.90 1015.94 1016.02 1015.94 1016.06 1016.10 1016.30 1016.62 1016.86 1017.14 1017.38 1017.66 1017.78 1017.90 1018.10 1018.18 1018.10 1018.46 1018.82 1019.34 1019.54 1019.58 1019.66 1020.02 1019.82 1019.74 1019.90 1019.98 1020.02 1020.02 1020.22 1020.34 1020.54
1015.94 1016.06 1016.18 1016.30 1016.26 1016.22 1016.18 1016.06 1015.74 1015.54 1015.38 1015.70 1016.02 1015.90 1015.94 1016.22 1016.34 1016.14 1015.74 1015.66 1015.70 1015.66 1015.70 1015.42 1015.22 1015.46 1015.94 1016.34 1016.58 1016.22 1015.86 1015.90 1015.82 1015.82 1015.82 1015.94 1016.06 1016.22 1016.38 1016.54 1016.78 1016.86 1016.90 1016.94 1017.14 1017.38 1017.66 1017.70 1017.90 1018.74 1019.22 1019.46 1019.70 1019.74 1019.62 1019.82 1019.98 1020.06 1020.02 1020.02 1020.10 1020.22 1020.30
1015.86 1015.90 1015.98 1016.10 1015.98 1015.98 1015.90 1015.90 1015.86 1015.78 1015.58 1015.66 1015.70 1015.66 1015.82 1016.02 1015.74 1015.46 1015.26 1015.18 1015.30 1015.34 1015.30 1015.02 1014.86 1015.14 1015.62 1015.78 1015.86 1015.98 1016.06 1016.18 1015.98 1015.78 1015.74 1015.66 1015.70 1015.94 1016.02 1016.06 1016.26 1016.46 1016.46 1016.38 1016.58 1016.94 1017.06 1017.14 1017.62 1018.50 1018.82 1018.74 1019.42 1019.74 1019.70 1019.86 1020.22 1020.02 1020.06 1019.98 1020.02 1020.14 1020.18
1015.82 1015.82 1015.86 1015.86 1015.70 1015.66 1015.62 1015.62 1015.58 1015.54 1015.50 1015.50 1015.62 1015.54 1015.42 1015.14 1014.98 1014.98 1014.98 1015.22 1015.38 1015.42 1015.26 1014.82 1014.90 1014.82 1014.90 1015.18 1015.38 1015.62 1015.66 1015.66 1015.78 1015.78 1015.66 1015.46 1015.50 1015.54 1015.62 1015.98 1016.06 1016.10 1016.18 1016.26 1016.42 1016.66 1016.94 1017.18 1017.66 1017.98 1018.58 1018.94 1019.10 1019.58 1019.66 1019.90 1019.82 1020.22 1020.18 1019.94 1019.94 1020.02 1020.06
1015.62 1015.62 1015.58 1015.46 1015.42 1015.38 1015.30 1015.30 1015.22 1015.18 1015.22 1015.18 1015.26 1015.10 1014.94 1014.86 1014.74 1014.78 1014.86 1014.82 1014.66 1014.74 1014.90 1014.78 1014.70 1014.70 1014.46 1014.50 1014.82 1015.10 1015.10 1015.26 1015.54 1015.62 1015.74 1015.74 1015.54 1015.58 1015.62 1015.66 1015.78 1015.94 1016.06 1016.14 1016.26 1016.42 1016.50 1016.62 1016.86 1017.34 1017.90 1019.06 1019.62 1019.58 1019.82 1019.78 1019.86 1019.86 1019.90 1019.86 1019.78 1019.86 1019.86
1015.46 1015.42 1015.38 1015.22 1015.10 1014.98 1014.98 1014.98 1014.98 1014.98 1014.90 1014.86 1014.86 1014.86 1014.74 1014.66 1014.58 1014.46 1014.26 1014.26 1014.14 1014.14 1014.22 1014.42 1014.54 1014.50 1014.30 1014.26 1014.50 1014.74 1014.86 1014.86 1015.34 1015.50 1015.54 1015.74 1015.66 1015.46 1015.50 1015.54 1015.74 1015.86 1015.86 1015.94 1016.02 1016.06 1016.14 1016.22 1016.38 1016.78 1017.14 1017.74 1018.70 1019.86 1019.82 1020.06 1020.10 1019.94 1019.58 1019.98 1019.74 1019.54 1019.82
1015.54 1015.58 1015.58 1015.42 1015.30 1015.10 1014.98 1014.90 1014.90 1014.78 1014.70 1014.70 1014.70 1014.62 1014.58 1014.38 1014.22 1013.94 1013.82 1013.86 1013.86 1013.86 1014.10 1014.30 1014.50 1014.66 1014.38 1014.38 1014.38 1014.46 1014.66 1014.58 1014.86 1015.22 1015.34 1015.46 1015.50 1015.46 1015.50 1015.50 1015.58 1015.70 1015.74 1015.78 1015.86 1015.86 1015.98 1016.06 1016.10 1016.38 1016.58 1017.06 1017.58 1018.50 1019.58 1019.94 1019.94 1019.90 1019.58 1019.38 1019.90 1019.58 1019.54
1015.58 1015.50 1015.42 1015.38 1015.22 1015.10 1014.98 1014.86 1014.78 1014.78 1014.74 1014.62 1014.54 1014.42 1014.34 1014.22 1014.02 1013.78 1013.66 1013.70 1013.66 1013.78 1013.90 1013.98 1014.18 1014.10 1014.30 1014.42 1014.06 1014.18 1014.38 1014.50 1014.74 1015.10 1015.26 1015.34 1015.54 1015.62 1015.62 1015.62 1015.62 1015.66 1015.58 1015.66 1015.70 1015.66 1015.74 1015.86 1016.14 1016.30 1016.50 1016.74 1016.98 1017.74 1018.22 1018.98 1019.50 1019.14 1019.22 1018.98 1019.02 1019.50 1019.58
1015.54 1015.46 1015.34 1015.26 1015.14 1015.02 1014.98 1014.90 1014.82 1014.74 1014.62 1014.50 1014.38 1014.22 1014.10 1013.94 1013.82 1013.74 1013.54 1013.38 1013.30 1013.18 1013.02 1013.06 1013.22 1013.58 1013.86 1014.02 1013.78 1013.98 1014.22 1014.42 1014.66 1014.98 1015.18 1015.38 1015.54 1015.66 1015.74 1015.66 1015.54 1015.58 1015.46 1015.50 1015.50 1015.58 1015.66 1015.78 1016.06 1016.22 1016.46 1016.66 1016.98 1017.30 1017.62 1018.10 1019.06 1018.82 1018.38 1019.02 1018.86 1018.86 1019.30
1015.54 1015.50 1015.42 1015.30 1015.18 1015.10 1014.94 1014.86 1014.74 1014.62 1014.50 1014.34 1014.22 1014.02 1013.86 1013.70 1013.58 1013.62 1013.50 1013.34 1013.22 1013.06 1013.02 1012.90 1013.06 1013.22 1013.18 1013.26 1013.50 1013.94 1014.34 1014.74 1014.70 1015.06 1015.34 1015.46 1015.54 1015.58 1015.62 1015.58 1015.42 1015.42 1015.34 1015.34 1015.46 1015.54 1015.66 1015.74 1015.94 1016.10 1016.38 1016.70 1017.02 1017.06 1017.06 1017.66 1018.22 1018.70 1018.34 1018.54 1018.70 1018.90 1018.98
1015.78 1015.62 1015.50 1015.34 1015.22 1015.06 1014.90 1014.74 1014.62 1014.50 1014.30 1014.22 1014.10 1013.98 1013.78 1013.66 1013.58 1013.46 1013.26 1013.22 1013.22 1013.10 1013.06 1012.90 1012.70 1012.70 1012.82 1013.06 1013.34 1013.62 1013.90 1014.38 1014.66 1014.74 1015.02 1015.34 1015.42 1015.46 1015.38 1015.22 1015.22 1015.18 1015.14 1015.26 1015.30 1015.42 1015.58 1015.70 1016.06 1016.06 1016.18 1016.50 1016.98 1017.10 1017.06 1017.46 1017.98 1018.42 1018.38 1018.26 1018.46 1018.86 1018.94
1015.78 1015.62 1015.50 1015.30 1015.22 1015.06 1014.86 1014.70 1014.54 1014.38 1014.30 1014.10 1013.98 1013.86 1013.70 1013.58 1013.38 1013.22 1013.14 1013.02 1012.98 1012.98 1012.86 1012.82 1012.74 1012.70 1012.74 1012.90 1013.06 1013.14 1013.54 1014.14 1014.26 1014.34 1014.50 1014.86 1015.02 1014.94 1015.06 1015.02 1014.94 1015.02 1015.02 1015.18 1015.14 1015.26 1015.34 1015.50 1015.98 1016.18 1016.14 1016.22 1016.50 1016.78 1016.78 1017.30 1017.94 1018.82 1018.94 1018.38 1018.50 1018.50 1018.90
1015.82 1015.62 1015.46 1015.30 1015.18 1014.98 1014.78 1014.62 1014.42 1014.38 1014.26 1014.06 1013.82 1013.70 1013.58 1013.42 1013.22 1013.06 1013.02 1012.90 1012.86 1012.86 1012.74 1012.58 1012.50 1012.58 1012.66 1012.74 1012.90 1013.02 1013.10 1013.26 1013.58 1013.86 1014.06 1014.18 1014.30 1014.38 1014.62 1014.74 1014.90 1015.02 1015.10 1015.18 1015.14 1015.10 1015.22 1015.50 1015.82 1016.46 1017.02 1016.98 1017.26 1017.42 1017.58 1017.38 1017.46 1018.06 1018.34 1018.34 1018.06 1018.54 1018.74
1015.82 1015.66 1015.50 1015.26 1015.14 1014.94 1014.78 1014.66 1014.50 1014.42 1014.26 1014.06 1013.86 1013.58 1013.42 1013.30 1013.22 1013.10 1012.94 1012.82 1012.74 1012.66 1012.62 1012.50 1012.38 1012.22 1012.30 1012.54 1012.74 1012.78 1012.78 1012.98 1013.26 1013.50 1013.62 1013.82 1014.02 1014.22 1014.46 1014.74 1014.90 1014.94 1014.98 1015.02 1015.02 1015.42 1015.82 1016.38 1016.74 1016.54 1016.34 1016.46 1016.90 1017.06 1017.18 1017.34 1017.74 1017.46 1017.62 1017.94 1018.10 1018.14 1018.46
1015.90 1015.70 1015.54 1015.38 1015.22 1015.06 1014.98 1014.86 1014.70 1014.54 1014.30 1014.14 1013.86 1013.66 1013.46 1013.34 1013.22 1013.06 1012.98 1012.82 1012.70 1012.54 1012.50 1012.46 1012.50 1012.42 1012.34 1012.38 1012.54 1012.58 1012.62 1012.82 1013.10 1013.26 1013.34 1013.58 1013.94 1014.26 1014.58 1014.78 1014.78 1014.74 1014.74 1014.86 1015.18 1015.74 1016.06 1015.98 1015.98 1016.10 1016.34 1016.50 1016.50 1016.78 1016.90 1017.06 1017.34 1017.62 1017.30 1017.50 1017.90 1017.94 1018.22
1016.02 1015.90 1015.78 1015.62 1015.50 1015.38 1015.30 1015.18 1014.98 1014.74 1014.50 1014.30 1013.98 1013.74 1013.58 1013.42 1013.30 1013.18 1013.18 1012.98 1012.62 1012.54 1012.46 1012.46 1012.46 1012.46 1012.50 1012.50 1012.62 1012.62 1012.58 1012.70 1012.90 1013.18 1013.42 1013.74 1014.14 1014.50 1014.70 1014.70 1014.54 1014.62 1014.70 1014.86 1015.42 1015.34 1015.66 1015.94 1016.02 1016.02 1016.30 1016.38 1016.58 1017.02 1016.74 1016.58 1016.82 1017.90 1018.22 1017.78 1017.34 1017.98 1018.30
1016.22 1016.10 1016.02 1015.98 1015.90 1015.82 1015.70 1015.58 1015.34 1015.14 1014.78 1014.50 1014.30 1014.02 1013.70 1013.50 1013.26 1013.26 1013.26 1013.10 1012.98 1012.70 1012.78 1012.62 1012.50 1012.46 1012.58 1012.74 1012.78 1012.78 1012.86 1012.94 1013.14 1013.46 1013.74 1013.90 1014.14 1014.58 1014.50 1014.22 1014.46 1014.50 1014.58 1014.62 1014.98 1015.14 1015.46 1016.02 1015.90 1015.86 1015.98 1016.18 1016.46 1016.74 1016.66 1016.70 1016.82 1017.42 1017.74 1018.10 1018.46 1017.78 1018.26
1016.38 1016.30 1016.22 1016.22 1016.22 1016.14 1016.06 1015.86 1015.66 1015.38 1015.06 1014.82 1014.62 1014.34 1013.98 1013.74 1013.50 1013.38 1013.26 1013.06 1012.90 1012.78 1012.74 1012.58 1012.34 1012.46 1012.74 1012.78 1013.02 1012.98 1013.06 1013.22 1013.46 1013.66 1013.78 1013.86 1014.30 1014.30 1014.10 1014.30 1014.46 1014.54 1014.38 1014.42 1014.54 1014.86 1015.10 1015.50 1015.62 1015.58 1015.78 1016.02 1016.14 1016.34 1016.62 1016.94 1017.10 1017.22 1017.54 1017.74 1018.02 1017.86 1018.06
1016.62 1016.54 1016.50 1016.54 1016.58 1016.50 1016.34 1016.18 1015.94 1015.66 1015.38 1015.10 1014.90 1014.70 1014.38 1014.14 1014.06 1013.94 1013.86 1013.66 1013.42 1013.30 1013.18 1012.98 1012.82 1012.78 1012.82 1012.90 1013.02 1013.22 1013.26 1013.42 1013.54 1013.74 1013.98 1014.14 1014.26 1014.14 1014.18 1014.26 1014.50 1014.62 1014.54 1014.34 1014.38 1014.50 1014.78 1015.06 1015.18 1015.54 1015.86 1015.74 1015.70 1015.98 1016.46 1016.90 1017.42 1017.74 1017.46 1017.42 1017.74 1017.54 1017.86
1016.90 1016.86 1016.86 1016.90 1016.90 1016.82 1016.66 1016.50 1016.30 1016.02 1015.78 1015.54 1015.34 1015.14 1014.94 1014.74 1014.70 1014.66 1014.54 1014.42 1014.34 1014.10 1014.06 1014.06 1013.70 1012.98 1012.70 1012.70 1012.86 1012.98 1013.22 1013.38 1013.62 1013.82 1014.02 1013.98 1014.14 1014.18 1013.98 1014.10 1014.14 1013.98 1014.18 1014.42 1014.46 1014.46 1014.74 1015.02 1014.94 1015.02 1015.26 1015.42 1015.46 1016.02 1016.14 1016.66 1017.18 1017.34 1017.22 1017.42 1017.46 1017.46 1017.78
1017.22 1017.30 1017.30 1017.26 1017.14 1017.02 1016.98 1016.86 1016.70 1016.50 1016.26 1016.02 1015.82 1015.70 1015.46 1015.26 1015.22 1015.10 1015.10 1015.02 1014.90 1014.62 1014.46 1014.46 1014.10 1013.42 1013.14 1012.94 1012.86 1013.10 1013.26 1013.42 1013.50 1013.66 1013.70 1013.94 1014.34 1014.38 1014.18 1014.22 1014.34 1014.22 1014.30 1014.38 1014.50 1014.62 1014.86 1014.90 1014.94 1015.02 1014.94 1014.90 1014.90 1015.46 1015.94 1016.26 1016.46 1016.58 1016.82 1016.94 1016.98 1017.22 1017.42
1017.54 1017.62 1017.62 1017.58 1017.46 1017.38 1017.34 1017.30 1017.18 1017.02 1016.86 1016.74 1016.62 1016.38 1016.14 1016.02 1015.74 1015.50 1015.46 1015.46 1015.46 1015.34 1014.98 1014.54 1014.26 1013.86 1013.34 1013.18 1013.18 1013.22 1013.38 1013.62 1013.78 1013.90 1013.90 1014.10 1014.10 1014.26 1014.50 1014.54 1014.14 1014.26 1014.62 1014.62 1014.90 1015.18 1015.58 1015.58 1015.38 1015.26 1015.02 1014.86 1015.06 1015.54 1015.70 1015.94 1016.10 1016.30 1016.46 1016.66 1016.90 1017.02 1017.14
1017.90 1017.90 1017.90 1017.82 1017.70 1017.70 1017.70 1017.70 1017.62 1017.50 1017.50 1017.54 1017.34 1017.18 1017.10 1016.78 1016.54 1016.18 1015.86 1015.78 1015.86 1015.78 1015.34 1014.94 1014.54 1014.02 1013.50 1013.34 1013.26 1013.34 1013.58 1013.78 1013.98 1014.18 1014.18 1014.26 1014.34 1014.42 1014.46 1014.50 1014.66 1014.66 1014.70 1014.86 1015.14 1015.42 1015.46 1015.82 1015.98 1015.98 1015.82 1015.98 1016.34 1016.30 1015.90 1015.82 1015.70 1015.70 1015.98 1016.26 1016.66 1017.06 1017.22
1018.38 1018.30 1018.26 1018.22 1018.10 1018.02 1018.02 1018.10 1018.10 1018.06 1018.02 1017.94 1017.90 1017.82 1017.70 1017.54 1017.26 1016.98 1016.66 1016.34 1016.18 1015.98 1015.62 1015.18 1014.62 1014.06 1013.58 1013.70 1013.78 1013.90 1014.34 1014.74 1015.06 1015.22 1015.18 1014.98 1014.62 1014.46 1014.62 1014.70 1014.66 1014.90 1014.94 1015.18 1015.34 1015.18 1015.26 1015.54 1015.90 1016.10 1016.26 1016.42 1016.50 1016.94 1016.62 1016.14 1015.94 1015.82 1016.18 1016.58 1016.94 1017.38 1017.74
1018.82 1018.74 1018.66 1018.62 1018.50 1018.42 1018.46 1018.46 1018.42 1018.42 1018.38 1018.42 1018.34 1018.34 1018.26 1018.18 1017.98 1017.66 1017.26 1016.86 1016.58 1016.30 1016.10 1015.62 1014.90 1014.02 1013.90 1014.06 1014.30 1014.54 1014.98 1015.18 1015.50 1015.86 1015.94 1015.86 1015.70 1015.26 1014.98 1014.90 1014.94 1015.10 1015.22 1015.14 1015.30 1015.18 1014.98 1015.42 1015.94 1016.22 1016.42 1016.62 1016.90 1017.14 1017.10 1016.82 1016.78 1016.62 1016.78 1017.10 1017.54 1018.02 1018.30
1019.22 1019.14 1019.10 1019.06 1018.94 1018.82 1018.78 1018.82 1018.86 1018.86 1018.82 1018.78 1018.74 1018.62 1018.66 1018.62 1018.54 1018.26 1017.82 1017.38 1017.02 1016.74 1016.54 1016.14 1015.58 1014.34 1014.42 1014.74 1014.98 1015.30 1015.54 1015.90 1016.34 1016.62 1016.78 1016.82 1016.70 1016.46 1016.18 1015.90 1015.70 1015.58 1015.50 1015.62 1015.70 1015.70 1015.26 1015.70 1016.14 1016.14 1016.58 1016.90 1017.06 1017.26 1017.78 1018.10 1017.58 1017.30 1017.34 1017.46 1017.90 1018.34 1018.70
1019.58 1019.54 1019.50 1019.46 1019.42 1019.34 1019.18 1019.14 1019.18 1019.18 1019.22 1019.26 1019.22 1019.18 1019.30 1019.34 1019.18 1018.86 1018.42 1018.06 1017.74 1017.50 1017.38 1017.10 1016.22 1015.06 1015.02 1015.34 1015.66 1016.14 1016.42 1016.74 1017.14 1017.46 1017.74 1017.70 1017.62 1017.42 1017.26 1016.98 1016.66 1016.66 1016.58 1016.46 1016.38 1016.38 1016.26 1016.74 1016.46 1016.42 1016.74 1017.10 1017.42 1017.54 1018.18 1018.46 1018.22 1018.06 1018.02 1018.26 1018.50 1018.70 1018.70
1019.98 1019.94 1019.90 1019.86 1019.78 1019.70 1019.58 1019.46 1019.46 1019.46 1019.54 1019.66 1019.66 1019.82 1019.78 1019.66 1019.58 1019.42 1019.22 1019.02 1018.86 1018.62 1018.54 1018.06 1017.18 1016.26 1016.06 1016.02 1016.26 1016.74 1017.02 1017.22 1017.66 1018.06 1018.34 1018.30 1018.26 1018.34 1018.34 1017.94 1017.66 1017.46 1017.30 1017.14 1016.78 1016.86 1017.06 1016.94 1016.98 1016.86 1016.58 1017.14 1017.70 1018.18 1018.66 1018.58 1018.50 1018.74 1018.66 1018.70 1018.82 1018.86 1018.90
1020.42 1020.34 1020.26 1020.22 1020.14 1020.10 1020.02 1020.02 1019.94 1019.82 1019.86 1019.86 1020.02 1020.10 1020.02 1020.02 1019.98 1019.90 1020.02 1019.90 1019.42 1019.18 1019.22 1018.94 1018.58 1017.90 1017.42 1017.18 1017.22 1017.30 1017.42 1017.66 1018.10 1018.70 1018.74 1018.94 1018.98 1018.98 1018.78 1018.62 1018.62 1018.34 1017.82 1017.74 1017.54 1017.62 1017.42 1017.26 1017.54 1017.62 1017.38 1017.46 1018.06 1018.54 1018.86 1018.70 1018.66 1018.74 1018.90 1019.02 1019.26 1019.22 1019.30
1020.82 1020.70 1020.62 1020.50 1020.42 1020.42 1020.42 1020.42 1020.46 1020.42 1020.38 1020.34 1020.42 1020.38 1020.38 1020.34 1020.30 1020.58 1020.50 1020.26 1020.18 1020.14 1020.10 1020.10 1019.62 1018.74 1018.46 1018.30 1018.18 1018.10 1018.10 1018.06 1018.86 1019.30 1019.26 1019.18 1019.30 1019.54 1019.54 1019.54 1019.54 1019.50 1018.62 1018.22 1018.46 1018.46 1018.62 1018.46 1018.58 1018.62 1018.30 1018.30 1018.42 1018.86 1018.90 1018.82 1018.82 1018.90 1019.14 1019.34 1019.74 1019.82 1019.94
1021.38 1021.22 1021.02 1020.86 1020.82 1020.82 1020.86 1020.90 1020.94 1020.86 1020.90 1020.90 1020.86 1020.86 1020.86 1020.86 1020.74 1020.82 1020.82 1020.82 1020.70 1020.74 1020.82 1020.62 1020.42 1019.82 1019.66 1019.46 1019.38 1019.14 1019.06 1019.50 1019.70 1019.58 1019.86 1020.06 1020.22 1020.34 1020.46 1020.58 1020.66 1020.54 1019.58 1019.10 1019.02 1019.26 1019.50 1019.58 1019.42 1019.62 1019.86 1019.82 1019.66 1019.42 1019.22 1019.34 1019.38 1019.26 1019.42 1019.66 1019.86 1020.06 1020.26
1021.86 1021.82 1021.70 1021.46 1021.26 1021.26 1021.34 1021.34 1021.30 1021.34 1021.34 1021.34 1021.30 1021.42 1021.50 1021.46 1021.38 1021.34 1021.22 1021.18 1021.26 1021.46 1021.42 1021.18 1021.02 1020.90 1020.74 1020.58 1020.42 1020.06 1020.02 1020.46 1020.50 1020.14 1020.26 1020.86 1020.98 1021.18 1021.46 1021.42 1021.46 1021.10 1020.42 1020.02 1019.86 1019.98 1020.18 1020.34 1020.26 1020.22 1020.78 1020.38 1019.98 1019.94 1020.02 1020.02 1019.90 1019.90 1020.02 1020.18 1020.38 1020.58 1020.78
1022.34 1022.30 1022.26 1022.10 1021.94 1021.98 1021.94 1021.86 1021.94 1021.90 1021.82 1021.78 1021.74 1021.82 1022.02 1022.10 1022.02 1021.98 1021.86 1021.90 1021.90 1021.90 1021.94 1021.86 1021.74 1021.66 1021.58 1021.38 1021.26 1021.14 1021.02 1021.10 1021.02 1020.70 1020.82 1021.50 1021.90 1022.10 1021.94 1021.86 1021.66 1021.26 1021.10 1020.82 1020.78 1020.78 1020.78 1020.90 1020.82 1021.06 1020.90 1020.86 1020.70 1020.62 1020.74 1020.82 1020.78 1020.82 1020.90 1021.02 1021.10 1021.34 1021.50
1022.66 1022.70 1022.70 1022.62 1022.50 1022.50 1022.54 1022.54 1022.54 1022.58 1022.58 1022.54 1022.58 1022.58 1022.66 1022.62 1022.58 1022.62 1022.74 1022.82 1022.70 1022.58 1022.42 1022.38 1022.42 1022.38 1022.30 1022.10 1021.94 1021.90 1021.86 1021.82 1021.66 1021.66 1021.62 1022.06 1022.42 1022.38 1022.22 1022.14 1022.06 1021.86 1021.66 1021.62 1021.58 1021.54 1021.50 1021.62 1021.74 1021.54 1021.38 1021.42 1021.46 1021.46 1021.58 1021.70 1021.70 1021.78 1021.78 1021.86 1021.94 1022.06 1022.14
Wind_Speed
6 6 7 6 3 4 4 5 4 7 7 7 7 4 1 9 9 5 3 4 7 7 6 7 8 7 5 5 6 6 5 6 8 8 9 8 9 6 8 7 4 0 5 2 2 7 6 8 5 3 2 3 3 3 4 6 6 6 6 6 5 6 5
4 5 3 2 1 1 2 4 3 4 4 4 5 6 8 8 2 4 6 9 11 10 7 7 7 7 8 8 7 6 7 7 7 7 7 8 8 7 8 8 5 4 6 3 0 0 4 6 4 7 5 3 3 3 3 4 5 6 6 6 6 6 6
3 3 2 3 3 2 2 3 3 5 5 5 6 8 3 4 9 9 9 9 8 7 5 5 6 7 7 7 7 7 7 9 7 7 8 6 7 6 7 7 8 5 6 1 2 2 2 3 6 8 7 8 8 5 4 5 4 5 4 5 6 6 6
4 2 3 3 2 2 1 4 4 5 4 0 3 2 6 4 3 6 8 6 5 7 1 5 7 2 4 6 6 7 8 8 7 8 8 7 7 7 8 8 10 11 8 7 8 6 4 4 4 5 6 7 7 6 6 5 4 3 4 5 6 6 6
1 2 3 4 3 3 3 4 5 5 5 2 0 3 2 3 2 6 6 6 6 5 6 8 8 7 7 6 6 6 7 6 7 7 8 8 9 8 9 9 8 8 7 7 7 8 7 6 7 7 7 5 4 2 3 3 3 4 5 6 5 6 6
1 2 2 3 3 3 4 4 4 5 5 1 3 5 2 2 4 7 8 8 6 5 7 9 7 7 7 8 7 7 5 5 6 7 7 9 10 9 9 8 6 7 8 5 6 7 6 5 7 7 5 8 6 5 3 5 3 3 4 4 4 5 5
1 1 2 2 4 4 5 5 4 4 5 1 1 3 3 5 6 6 6 3 3 4 5 8 7 6 7 8 8 7 8 7 6 7 8 9 9 8 6 7 7 7 6 5 6 6 6 6 6 9 8 4 4 6 3 4 4 4 2 3 4 5 5
1 1 2 2 3 3 4 5 5 3 3 2 3 6 4 6 6 5 3 3 5 5 6 8 9 8 9 8 7 9 8 6 7 7 6 7 8 8 7 8 8 6 7 6 6 6 6 6 8 8 10 9 4 4 6 5 4 6 4 4 5 6 6
2 2 3 3 4 3 4 3 3 2 2 1 2 3 5 6 6 6 6 6 6 6 6 7 7 8 9 8 6 6 7 6 7 8 8 7 8 9 9 7 6 8 7 7 7 6 7 7 6 7 9 10 11 7 5 6 4 5 6 5 5 6 7
5 5 6 6 5 4 3 3 3 2 1 1 2 3 5 6 6 8 8 6 6 5 5 6 5 4 7 6 6 7 7 8 8 9 6 7 6 7 6 8 7 6 6 6 6 6 6 6 6 7 8 10 9 10 8 8 8 6 8 8 7 6 9
4 4 3 4 3 4 3 3 3 3 3 3 3 3 4 6 6 8 7 5 3 1 3 4 6 7 6 7 7 6 5 4 4 4 6 5 4 3 5 5 5 6 5 6 6 6 6 6 6 7 7 6 7 10 9 10 8 6 7 8 6 5 6
4 4 4 4 4 4 4 4 3 2 3 4 5 5 5 5 6 7 7 6 6 7 9 9 9 8 8 8 7 6 6 6 5 5 3 4 3 3 5 6 5 5 5 5 4 5 5 6 6 6 6 6 5 4 6 6 7 5 5 7 6 7 9
7 7 6 6 6 4 4 4 4 4 4 4 4 5 5 6 5 5 5 6 6 7 6 5 6 8 9 7 5 3 2 7 9 8 5 4 5 6 7 8 7 6 5 5 5 5 5 5 5 7 7 7 5 5 6 7 8 8 4 4 6 8 11
7 6 6 5 5 5 4 5 4 4 4 4 4 5 5 5 5 5 6 6 7 6 5 4 4 5 6 6 6 7 6 8 9 7 6 7 8 9 7 8 7 6 5 5 5 6 6 6 6 6 6 7 7 5 6 6 9 7 1 2 7 8 9
5 5 5 5 5 5 4 4 4 4 5 5 4 5 5 5 5 5 6 7 7 6 4 4 4 4 3 5 6 7 7 5 8 7 7 8 9 9 8 7 6 6 6 6 5 6 7 6 8 8 8 8 8 9 6 5 6 7 5 4 7 8 9
5 5 5 5 5 5 5 4 4 5 6 6 5 5 5 5 6 6 6 7 6 4 3 4 4 5 6 6 6 7 8 9 8 7 7 8 8 6 6 6 6 5 5 6 6 5 5 4 2 5 7 2 1 3 3 1 7 9 9 7 8 10 9
6 6 6 6 6 6 5 5 5 6 6 6 6 6 4 6 6 6 6 6 4 2 3 4 4 5 5 5 6 7 8 8 7 6 6 6 6 6 6 5 4 6 6 7 5 2 5 9 6 6 9 6 6 8 8 4 5 7 7 9 8 10 9
6 8 8 7 7 7 7 8 7 7 6 6 6 5 5 5 6 6 6 5 4 2 3 3 3 2 2 3 6 7 7 6 6 6 6 5 5 4 3 3 4 5 6 6 4 7 6 9 8 6 5 2 7 6 4 3 2 5 5 9 8 7 7
8 9 10 9 10 9 9 9 9 9 8 6 6 6 6 6 5 5 5 7 3 2 2 3 3 3 1 2 2 4 5 5 5 6 5 2 2 1 5 5 6 6 5 6 4 6 8 8 5 6 7 5 3 5 4 5 6 4 5 1 8 6 5
8 8 8 9 9 9 10 10 10 10 10 9 9 8 7 7 7 4 5 5 3 1 3 2 1 1 3 0 2 3 3 3 2 2 2 2 5 3 7 8 4 5 6 6 8 8 8 9 8 7 8 9 6 7 6 6 7 9 7 3 5 5 7
8 9 8 9 9 10 9 10 10 9 9 9 10 10 9 8 8 7 5 4 3 3 3 2 2 0 3 1 2 2 3 4 3 3 1 1 4 7 8 3 2 3 5 6 6 7 8 8 6 7 5 5 6 7 6 4 4 7 10 8 6 7 5
7 8 9 9 10 10 10 10 10 10 9 9 9 10 11 11 12 11 11 12 11 8 6 4 3 1 2 5 3 4 3 4 4 3 2 4 7 7 4 6 7 5 4 6 8 8 7 9 9 7 5 6 8 8 7 6 4 4 7 6 5 5 6
8 8 9 10 9 9 9 10 10 10 10 10 10 11 11 11 11 10 9 8 7 7 7 6 9 9 2 0 4 3 4 5 6 6 4 5 7 6 5 3 5 13 11 11 9 8 9 11 10 9 10 7 7 6 7 8 9 8 7 7 8 7 7
8 10 10 9 8 9 10 9 10 11 11 11 11 10 11 12 10 10 10 8 7 6 6 6 12 7 9 9 4 4 3 4 4 5 5 3 5 3 3 2 3 2 4 7 8 6 6 11 12 10 12 11 7 9 7 7 8 8 8 8 7 7 7
8 9 9 8 8 9 9 10 11 11 12 13 12 12 13 11 10 10 9 9 8 8 6 11 11 10 9 10 7 5 5 6 6 5 5 5 4 4 5 3 2 4 2 4 7 8 10 10 8 7 6 7 6 4 6 5 5 7 8 8 7 8 8
9 9 9 8 8 8 9 10 11 12 13 11 11 12 11 11 11 10 10 10 8 8 7 13 13 8 8 9 11 9 6 6 5 5 5 5 5 4 3 3 3 5 5 11 8 9 11 12 12 12 11 11 11 7 9 6 5 5 6 8 7 4 2
10 9 9 9 9 9 10 10 10 9 10 11 11 11 12 12 11 11 9 9 8 8 7 14 14 8 13 14 15 13 11 11 11 10 10 8 5 4 4 2 4 6 5 7 7 9 8 8 7 7 7 6 7 9 10 11 11 14 10 7 7 6 3
9 9 9 9 9 10 10 9 10 9 9 10 11 11 11 11 11 10 9 9 9 9 10 18 10 15 19 19 19 15 12 12 12 13 11 10 12 11 9 7 7 6 5 5 4 4 9 8 7 8 8 9 9 8 8 8 6 7 10 9 10 8 6
8 8 9 9 9 9 9 9 10 9 9 10 10 10 12 10 11 12 9 11 11 12 13 23 15 17 19 19 18 12 12 13 13 13 12 12 12 11 9 8 7 6 5 4 5 8 10 7 7 12 11 10 11 11 11 8 12 12 11 10 10 9 8
8 9 8 9 9 9 8 9 9 8 10 10 11 12 12 11 11 12 12 13 13 13 14 20 17 17 19 19 14 10 12 12 13 14 12 11 11 12 13 10 8 7 7 7 9 12 14 8 5 12 12 12 10 11 10 9 15 18 18 18 16 15 15
8 8 8 9 9 9 9 7 7 7 9 10 12 11 10 11 12 13 14 15 13 12 12 18 22 21 20 20 16 11 10 12 13 13 12 13 12 12 17 25 17 8 10 9 14 14 11 7 6 5 12 13 12 12 8 6 8 9 14 15 16 16 16
8 8 8 8 8 9 9 8 8 7 8 9 9 9 10 11 12 13 13 13 19 17 14 18 22 20 19 17 12 10 11 12 13 11 11 12 12 12 13 17 23 16 14 17 22 19 17 10 6 6 8 11 11 10 6 5 7 8 7 9 9 10 12
8 8 8 9 9 9 8 8 9 9 9 8 8 9 10 11 14 12 12 14 15 14 15 15 19 24 22 21 17 10 8 12 13 11 11 11 13 13 13 14 15 20 21 25 23 23 21 19 11 9 8 8 9 9 2 5 7 8 9 10 9 9 9
9 8 8 8 8 9 8 8 8 9 9 8 9 10 11 10 12 12 13 13 15 16 13 15 19 25 24 24 20 13 12 11 9 12 12 12 11 12 12 12 11 17 21 24 25 25 23 20 17 13 11 9 7 7 8 7 8 10 9 9 9 9 8
9 8 8 8 9 10 9 8 8 8 8 9 11 11 10 10 10 11 12 14 15 14 16 20 16 22 23 23 22 21 14 12 9 10 14 11 11 11 10 10 9 15 23 24 24 24 23 20 19 13 14 16 19 18 10 7 6 7 8 8 8 8 8
10 8 9 9 10 10 9 10 10 9 9 9 11 11 11 9 10 11 11 11 11 12 13 15 20 18 21 22 22 22 20 15 16 14 14 13 11 9 8 9 11 19 21 23 23 23 22 21 17 16 20 19 19 19 13 8 8 8 8 8 8 8 7
11 10 10 10 11 11 10 9 9 9 9 9 9 10 9 9 10 11 11 10 10 10 10 10 15 18 17 21 20 21 20 19 18 13 13 11 9 10 10 11 13 19 20 20 20 20 21 18 15 19 19 19 18 15 10 9 8 8 8 8 8 7 6
Wind_Direction
212 217 242 242 219 211 214 220 220 226 216 211 215 216 50 35 29 1 302 290 267 237 224 222 226 230 231 228 215 209 197 191 186 179 189 184 182 190 196 218 236 269 292 272 206 164 161 170 175 162 149 204 200 197 171 169 177 178 177 181 169 166 171
261 261 248 242 114 359 265 299 261 249 266 310 349 20 51 48 342 233 233 224 228 228 216 224 228 224 221 220 214 204 199 201 197 189 179 187 185 183 166 206 207 179 232 224 29 34 140 160 164 173 166 154 218 229 203 183 178 184 185 178 178 170 169
280 300 7 52 48 29 4 319 311 313 317 16 28 39 56 180 219 233 239 233 235 240 225 235 230 230 227 225 217 206 204 202 196 186 189 181 186 178 178 170 186 195 196 193 166 203 62 151 167 181 170 168 190 202 183 189 179 187 190 173 169 164 163
287 339 22 10 360 358 333 289 274 257 245 225 93 220 232 204 223 250 250 246 233 231 200 257 242 225 280 268 237 217 217 202 198 194 195 193 177 173 180 183 188 190 182 182 175 182 168 169 138 166 163 181 182 162 200 178 183 196 183 165 155 165 170
317 330 323 305 276 256 232 255 270 275 276 55 17 238 332 32 259 263 267 259 244 222 194 219 234 217 208 216 236 231 229 203 209 192 194 195 189 184 188 192 193 186 181 172 174 172 178 186 163 160 164 155 153 185 144 153 177 225 183 176 163 166 178
258 271 268 260 253 252 255 259 262 270 281 254 218 243 180 198 220 237 251 250 235 218 226 224 214 219 203 209 206 213 220 217 222 203 198 202 195 188 189 193 183 184 188 175 158 172 187 160 151 147 165 162 156 160 154 156 184 196 193 185 174 185 175
5 299 279 248 246 233 228 244 245 244 246 242 131 260 197 215 234 233 233 273 308 272 223 237 230 219 208 204 200 188 205 206 213 221 212 203 198 201 183 179 189 187 188 179 169 167 176 153 161 158 149 153 131 153 132 172 168 139 250 228 221 194 176
21 324 289 260 254 239 231 230 241 233 240 224 181 244 241 231 246 255 258 223 226 231 222 237 235 233 232 213 190 185 201 195 208 214 214 211 202 198 195 189 188 187 190 185 173 190 182 180 166 162 150 142 136 149 159 174 169 197 172 206 206 202 168
334 322 309 300 294 283 268 249 239 224 233 250 180 198 218 231 245 252 237 214 233 231 221 225 229 230 233 223 196 182 190 186 211 218 212 205 213 200 196 184 176 195 191 188 191 189 187 177 162 156 160 157 153 156 170 174 190 201 190 187 200 193 150
358 358 349 339 336 332 330 325 324 301 284 280 241 215 228 231 242 252 259 244 234 242 239 228 239 257 250 240 217 198 186 191 200 214 217 209 207 201 197 185 185 187 192 192 196 189 173 159 162 163 166 165 164 155 163 174 192 173 196 182 180 172 152
8 359 358 359 346 352 352 357 12 354 323 288 270 263 230 228 225 243 255 251 239 41 303 269 249 244 248 248 222 201 169 156 215 222 210 209 223 219 209 192 176 188 188 182 185 173 163 158 148 164 165 161 156 164 167 169 179 187 170 188 167 151 143
6 359 354 350 344 346 345 344 341 321 313 304 292 280 256 240 234 241 245 237 213 204 212 218 199 201 219 219 214 191 154 148 189 232 204 196 200 215 220 198 187 186 182 183 170 165 157 159 161 160 173 165 163 161 154 149 147 211 178 169 155 151 148
9 8 355 350 347 343 339 344 333 326 297 282 282 281 275 254 248 259 256 247 234 225 226 205 191 203 213 220 181 132 110 146 196 209 208 176 188 211 212 202 192 187 177 163 175 169 160 170 157 165 167 173 151 171 151 148 160 168 168 152 151 151 150
8 359 352 341 345 339 337 333 324 307 305 302 290 286 279 276 271 263 266 258 244 235 232 238 217 212 213 198 146 163 182 166 192 203 199 192 188 206 218 200 192 184 176 168 176 173 168 173 156 191 179 158 162 181 161 150 158 155 164 201 152 155 156
353 343 340 335 341 333 324 323 314 317 310 298 291 287 282 284 278 270 271 275 267 249 224 224 196 180 165 149 151 166 161 150 191 202 202 197 197 190 191 192 191 186 185 186 182 182 181 180 169 185 180 173 171 184 174 136 132 146 199 175 159 153 158
336 328 333 332 335 328 324 324 322 317 310 307 305 294 293 291 289 288 285 283 280 265 216 210 190 192 195 178 165 160 173 180 189 197 199 203 196 183 185 191 193 182 186 191 195 193 178 187 150 84 59 33 134 69 10 332 151 162 168 173 161 156 163
339 339 345 340 339 333 336 335 334 331 317 310 315 312 310 314 304 289 288 292 303 271 225 205 195 208 200 174 168 169 176 182 188 194 199 207 197 185 185 181 185 179 185 188 189 162 54 60 73 139 160 161 122 134 167 191 198 183 163 149 169 158 164
358 2 358 347 348 1 5 357 345 334 325 324 322 326 327 320 300 291 296 296 279 245 216 198 188 183 155 150 165 172 185 181 179 194 204 208 204 193 161 153 169 178 179 178 135 130 133 134 150 168 130 110 157 158 123 106 50 310 170 151 152 157 146
15 13 10 10 13 15 9 5 358 356 347 335 337 338 335 329 323 321 333 315 275 234 215 180 194 196 167 137 149 174 190 191 184 191 193 167 101 47 136 176 189 183 179 176 145 148 152 139 147 162 136 171 190 125 152 121 114 118 335 294 151 137 136
22 19 17 22 21 19 15 8 4 1 356 358 358 343 338 337 326 335 318 322 349 48 68 53 26 84 73 188 186 160 178 172 132 114 98 118 123 111 184 202 186 188 182 167 164 171 148 147 174 169 163 177 157 156 162 165 134 147 142 101 303 150 145
25 21 21 27 27 21 14 11 4 0 357 5 5 358 351 350 343 353 311 299 327 45 78 126 206 244 108 165 239 144 135 121 110 129 145 94 95 185 206 159 159 214 185 174 163 159 160 150 154 172 163 141 149 146 153 131 115 139 155 167 209 169 158
27 20 30 34 29 20 15 12 8 4 6 8 11 11 13 19 18 22 19 22 22 25 27 349 13 319 198 192 172 172 164 144 131 110 142 148 165 199 193 160 172 210 228 157 155 171 157 148 156 161 151 149 165 149 130 126 138 206 163 172 200 173 147
26 26 34 36 29 24 19 16 12 11 11 10 15 18 23 30 29 24 22 20 16 17 18 15 339 322 34 358 164 149 128 132 140 138 162 186 150 167 213 193 161 176 195 158 156 167 150 155 166 161 161 172 163 146 153 158 168 196 171 182 187 162 154
34 37 35 31 26 23 25 20 18 15 13 12 17 22 27 31 25 25 23 17 13 10 8 356 344 358 30 32 94 108 109 101 111 116 174 133 97 127 180 62 34 101 155 159 158 154 137 153 160 158 155 166 169 159 167 166 178 188 178 184 168 154 162
40 43 36 30 25 29 30 26 25 21 20 17 16 21 26 22 22 21 24 22 17 4 349 350 357 359 41 43 50 85 81 62 59 62 81 80 104 99 45 23 128 119 96 100 98 94 72 79 101 105 118 114 157 138 122 169 159 151 163 162 155 168 161
34 40 36 27 29 36 35 32 28 27 28 24 22 26 21 16 14 8 13 18 8 356 342 343 345 356 56 54 53 66 65 71 79 59 65 78 80 75 73 100 49 57 79 87 86 91 104 102 98 96 90 75 55 70 129 144 139 130 137 124 134 116 109
29 32 36 28 29 35 39 37 33 31 33 32 31 27 24 22 16 11 5 7 5 357 3 345 339 7 67 64 64 65 62 60 54 45 38 28 33 82 62 33 84 74 71 85 100 108 104 102 103 99 78 64 69 37 30 60 71 75 66 80 86 97 38
30 30 34 31 31 39 40 40 36 32 36 34 33 31 26 24 16 8 3 8 12 11 5 358 346 71 68 66 62 64 63 60 55 47 35 30 28 27 30 48 60 56 48 88 105 116 111 100 102 89 78 70 61 59 45 32 23 59 88 96 92 80 65
36 34 36 33 31 37 43 41 41 37 40 39 38 35 35 29 20 12 8 16 20 23 7 4 346 78 76 72 69 63 65 62 57 50 39 29 28 20 19 26 40 46 55 40 28 41 82 106 114 96 89 81 75 68 58 41 68 74 82 85 88 87 80
42 37 38 39 36 32 34 42 47 43 50 44 42 40 37 36 26 24 20 22 24 26 19 1 0 63 73 75 73 71 69 69 64 58 46 41 39 35 28 25 34 40 33 17 21 38 62 29 76 99 96 88 83 78 70 54 63 74 80 83 86 87 81
40 40 39 40 39 37 34 35 48 48 54 52 50 45 43 43 39 33 30 30 25 37 25 14 21 46 61 68 70 72 72 73 67 63 60 50 47 46 40 40 43 47 52 41 55 55 49 74 57 82 103 97 88 87 82 82 81 75 83 81 73 68 63
38 40 43 43 42 44 39 37 39 42 51 56 55 53 48 49 49 44 37 35 33 40 33 25 26 39 47 57 71 80 76 77 71 62 63 59 52 42 39 36 35 37 60 58 54 49 43 44 66 42 71 91 90 89 102 104 89 87 80 70 58 57 48
37 39 44 47 47 47 44 47 46 46 47 48 51 51 50 51 55 49 44 43 44 41 42 38 34 42 43 43 43 54 62 73 74 67 61 62 57 46 43 37 31 29 50 61 58 54 47 50 52 31 38 65 91 96 107 73 83 91 85 83 77 68 66
39 35 39 51 55 55 51 56 56 56 58 58 62 59 55 54 57 55 51 50 51 47 45 50 44 47 47 46 39 43 59 57 64 75 68 60 55 54 47 42 40 27 48 56 58 55 51 45 53 55 42 48 45 58 56 64 59 68 78 76 71 65 58
45 44 38 43 53 56 52 51 54 58 62 65 65 63 57 53 56 56 54 53 52 52 46 49 56 51 53 53 51 50 56 47 38 72 72 65 61 59 52 50 46 43 47 52 56 56 51 50 49 56 46 44 43 41 44 52 61 66 74 74 76 69 62
53 49 48 48 56 55 49 51 47 45 49 55 59 61 54 49 53 53 53 48 49 51 49 48 49 53 51 55 56 58 61 62 57 62 70 64 57 59 64 65 50 48 52 55 55 54 54 46 48 48 47 43 43 45 41 39 42 52 60 67 68 71 63
60 55 51 53 55 56 51 50 51 49 50 54 55 57 50 51 54 52 52 48 41 39 40 49 46 48 52 54 57 58 57 56 56 63 66 69 62 59 56 55 61 60 57 53 54 56 56 55 53 49 48 46 46 45 46 42 47 53 61 60 61 59 57